State College, PA

10:41 PM EST on December 13, 2017 (GMT -0500)
University Park

Weather History for KUNV - January, 2013

Change the Weather History Date:

Monday, January 7, 2013

  Actual Average Record
Temperature  
Mean Temperature 30 °F -  
Max Temperature 35 °F 33 °F 66 °F (2008)
Min Temperature 25 °F 19 °F -9 °F (2014)
Degree Days  
Heating Degree Days 35    
Moisture  
Dew Point 24 °F    
Average Humidity 76    
Maximum Humidity 83    
Minimum Humidity 65    
Precipitation  
Precipitation 0.02 in - - ()
Sea Level Pressure  
Sea Level Pressure 30.27 in    
Wind  
Wind Speed 9 mph (West)    
Max Wind Speed 13 mph    
Max Gust Speed 17 mph    
Visibility 10 miles    
Events      
Averages and records for this station are not official NWS values.
T = Trace of Precipitation, MM = Missing Value Source: NWS Daily Summary

Daily Weather History Graph

Daily Weather History Graph

Search for Another Location

Airport or City:

Trip Planner

Search our weather history database for the weather conditions in past years. The results will help you decide how hot, cold, wet, or windy it might be!

Date:

Astronomy

Jan. 07, 2013 Rise Set
Actual Time 7:35 AM EST 5:00 PM EST
Civil Twilight 7:05 AM EST 5:30 PM EST
Nautical Twilight 6:31 AM EST 6:04 PM EST
Astronomical Twilight 5:57 AM EST 6:38 PM EST
Moon 2:56 AM EST (1/7) 1:09 PM EST (1/7)
Length of Visible Light 10h 25m
Length of Day
9h 24m
Waning Crescent, 23% of the Moon is Illuminated
Jan 7
Waning Crescent
Jan 11
New
Jan 18
First Quarter
Jan 26
Full
Feb 3
Last Quarter

Hourly Weather History & Observations

Time (EST) Temp. Windchill Dew Point Humidity Pressure Visibility Wind Dir Wind Speed Gust Speed Precip Events Conditions
12:35 AM 34.9 °F 26.2 °F 27.9 °F 76% 30.10 in 10.0 mi West 12.7 mph - 0.01 in   Overcast
12:55 AM 34.9 °F 26.6 °F 27.9 °F 76% 30.11 in 10.0 mi WNW 11.5 mph 17.3 mph N/A   Overcast
1:15 AM 34.9 °F 27.7 °F 27.5 °F 74% 30.12 in 10.0 mi West 9.2 mph - N/A   Overcast
1:35 AM 35.1 °F 29.3 °F 27.0 °F 72% 30.13 in 10.0 mi WNW 6.9 mph - 0.01 in   Overcast
1:55 AM 34.9 °F 29.9 °F 27.0 °F 73% 30.15 in 10.0 mi West 5.8 mph - N/A   Overcast
2:15 AM 34.7 °F 27.5 °F 27.3 °F 74% 30.15 in 10.0 mi West 9.2 mph - N/A   Overcast
2:35 AM 34.7 °F 26.4 °F 26.8 °F 73% 30.16 in 10.0 mi West 11.5 mph 17.3 mph N/A   Overcast
2:55 AM 34.7 °F 26.4 °F 26.8 °F 73% 30.17 in 10.0 mi WNW 11.5 mph - N/A   Overcast
3:15 AM 34.3 °F 29.2 °F 27.1 °F 75% 30.17 in 10.0 mi West 5.8 mph - 0.01 in   Overcast
3:35 AM 34.0 °F 26.0 °F 27.3 °F 77% 30.18 in 10.0 mi West 10.4 mph - 0.01 in   Overcast
3:55 AM 34.0 °F 28.0 °F 27.3 °F 77% 30.19 in 10.0 mi West 6.9 mph 10.4 mph N/A   Overcast
4:15 AM 33.8 °F 27.0 °F 27.3 °F 77% 30.20 in 10.0 mi WNW 8.1 mph - N/A   Overcast
4:35 AM 33.8 °F 27.7 °F 27.5 °F 78% 30.21 in 10.0 mi West 6.9 mph 10.4 mph N/A   Overcast
5:53 AM 33.8 °F 24.8 °F 26.6 °F 75% 30.23 in 10.0 mi West 12.7 mph - N/A   Overcast
6:53 AM 32.0 °F 23.0 °F 26.6 °F 80% 30.25 in 10.0 mi West 11.5 mph - N/A   Overcast
7:53 AM 32.0 °F 25.6 °F 26.6 °F 80% 30.29 in 10.0 mi West 6.9 mph - N/A   Overcast
8:53 AM 32.0 °F 26.4 °F 26.6 °F 80% 30.32 in 10.0 mi West 5.8 mph - N/A   Overcast
9:53 AM 33.8 °F 27.0 °F 26.6 °F 75% 30.35 in 10.0 mi West 8.1 mph - N/A   Overcast
10:53 AM 33.8 °F 25.3 °F 23.0 °F 65% 30.37 in 10.0 mi WNW 11.5 mph - N/A   Overcast
11:53 AM 33.8 °F 25.3 °F 23.0 °F 65% 30.35 in 10.0 mi WNW 11.5 mph - N/A   Overcast
12:53 PM 33.8 °F 25.3 °F 23.0 °F 65% 30.36 in 10.0 mi West 11.5 mph - N/A   Overcast
2:53 PM 33.8 °F 28.6 °F 23.0 °F 65% 30.35 in 10.0 mi West 5.8 mph - N/A   Overcast
3:50 PM 32.0 °F 23.0 °F 23.0 °F 69% 30.35 in 10.0 mi WNW 11.5 mph - N/A   Overcast
4:53 PM 32.0 °F 24.2 °F 23.0 °F 69% 30.35 in 10.0 mi West 9.2 mph - N/A   Overcast
6:53 PM 28.4 °F 23.3 °F 21.2 °F 74% 30.35 in 10.0 mi WSW 4.6 mph - N/A   Scattered Clouds
7:53 PM 26.6 °F 21.2 °F 21.2 °F 80% 30.34 in 10.0 mi SW 4.6 mph - N/A   Clear
8:15 PM 28.2 °F 22.0 °F 21.6 °F 76% 30.33 in 10.0 mi WSW 5.8 mph - N/A   Clear
8:35 PM 27.5 °F 22.2 °F 21.0 °F 77% 30.32 in 10.0 mi SW 4.6 mph - N/A   Clear
8:53 PM 26.6 °F 21.2 °F 21.2 °F 80% 30.32 in 10.0 mi SW 4.6 mph - N/A   Clear
8:55 PM 27.0 °F 21.6 °F 20.8 °F 78% 30.32 in 10.0 mi SSW 4.6 mph - N/A   Clear
9:15 PM 27.3 °F 20.9 °F 21.0 °F 77% 30.32 in 10.0 mi WSW 5.8 mph - N/A   Clear
9:35 PM 26.1 °F 20.5 °F 20.8 °F 81% 30.32 in 7.0 mi WSW 4.6 mph - N/A   Clear
9:55 PM 27.0 °F 20.5 °F 20.8 °F 78% 30.32 in 7.0 mi WSW 5.8 mph - N/A   Clear
10:15 PM 26.1 °F 18.4 °F 20.5 °F 79% 30.32 in 10.0 mi WSW 6.9 mph - N/A   Clear
10:35 PM 26.6 °F 19.1 °F 20.7 °F 78% 30.31 in 10.0 mi WSW 6.9 mph - N/A   Clear
10:55 PM 25.9 °F 17.4 °F 20.1 °F 79% 30.31 in 7.0 mi WSW 8.1 mph - N/A   Clear
11:15 PM 25.0 °F 16.3 °F 20.1 °F 82% 30.31 in 7.0 mi WSW 8.1 mph - N/A   Clear
11:35 PM 26.6 °F 19.1 °F 21.4 °F 81% 30.29 in 10.0 mi WSW 6.9 mph - N/A   Clear
11:55 PM 25.5 °F 17.8 °F 21.0 °F 83% 30.29 in 7.0 mi WSW 6.9 mph - N/A   Clear